Weather History for Punta Gorda, FL

Change the Weather History Date:

Wednesday, April 10, 2013

  Actual Average Record
Temperature  
Mean Temperature 76 °F -  
Max Temperature 90 °F 81 °F 90 °F (2013)
Min Temperature 62 °F 58 °F 53 °F (2009)
Cooling Degree Days 10    
Growing Degree Days 26 (Base 50)    
Moisture  
Dew Point 65 °F    
Average Humidity 76    
Maximum Humidity 97    
Minimum Humidity 48    
Precipitation  
Precipitation 0.00 in - - ()
Sea Level Pressure  
Sea Level Pressure 30.05 in    
Wind  
Wind Speed 8 mph (ESE)    
Max Wind Speed 25 mph    
Max Gust Speed 34 mph    
Visibility 10 miles    
Events Thunderstorm    
Averages and records for this station are not official NWS values.
T = Trace of Precipitation, MM = Missing Value Source: NWS Daily Summary

Daily Weather History Graph

Daily Weather History Graph

Search for Another Location

Airport:

Trip Planner

Search our weather history database for the weather conditions in past years. The results will help you decide how hot, cold, wet, or windy it might be!

Date:

Astronomy

Apr. 10, 2013 Rise Set
Actual Time 7:08 AM EDT 7:49 PM EDT
Civil Twilight 6:45 AM EDT 8:13 PM EDT
Nautical Twilight 6:17 AM EDT 8:41 PM EDT
Astronomical Twilight 5:49 AM EDT 9:09 PM EDT
Moon 7:07 AM EDT (4/10) 8:18 PM EDT (4/10)
Length of Visible Light 13h 28m
Length of Day
12h 40m
New Moon, 0% of the Moon is Illuminated
Apr 10
New Moon
Apr 18
First Quarter
Apr 25
Full
May 2
Last Quarter
May 9
New

Hourly Weather History & Observations

Time (EDT) Temp. Heat Index Dew Point Humidity Pressure Visibility Wind Dir Wind Speed Gust Speed Precip Events Conditions
12:53 AM 68.0 °F - 63.0 °F 84% 30.13 in 10.0 mi East 6.9 mph - N/A   Clear
1:53 AM 66.0 °F - 62.1 °F 87% 30.12 in 10.0 mi NE 4.6 mph - N/A   Clear
2:53 AM 64.0 °F - 62.1 °F 93% 30.11 in 10.0 mi ENE 3.5 mph - N/A   Clear
3:53 AM 63.0 °F - 62.1 °F 97% 30.10 in 10.0 mi Calm Calm - N/A   Overcast
4:53 AM 63.0 °F - 62.1 °F 97% 30.09 in 10.0 mi ENE 4.6 mph - N/A   Mostly Cloudy
5:53 AM 62.1 °F - 60.1 °F 93% 30.08 in 10.0 mi ENE 4.6 mph - N/A   Clear
6:53 AM 62.1 °F - 61.0 °F 96% 30.08 in 10.0 mi East 5.8 mph - N/A   Clear
7:53 AM 63.0 °F - 62.1 °F 97% 30.09 in 10.0 mi East 4.6 mph - N/A   Clear
8:53 AM 71.1 °F - 66.0 °F 84% 30.09 in 10.0 mi ESE 8.1 mph - N/A   Clear
9:53 AM 77.0 °F - 66.0 °F 69% 30.09 in 10.0 mi ESE 13.8 mph - N/A   Clear
10:53 AM 81.0 °F 83.0 °F 66.0 °F 60% 30.10 in 10.0 mi SSE 11.5 mph 18.4 mph N/A   Clear
11:53 AM 84.0 °F 86.5 °F 66.9 °F 56% 30.09 in 10.0 mi SSE 11.5 mph 18.4 mph N/A   Partly Cloudy
12:53 PM 86.0 °F 88.2 °F 66.0 °F 51% 30.07 in 10.0 mi SSE 11.5 mph 18.4 mph N/A   Mostly Cloudy
1:53 PM 87.1 °F 89.2 °F 66.0 °F 49% 30.05 in 10.0 mi SSE 8.1 mph - N/A   Scattered Clouds
3:53 PM 89.1 °F 92.1 °F 66.9 °F 48% 30.01 in 10.0 mi WSW 6.9 mph - N/A   Partly Cloudy
4:53 PM 88.0 °F 90.7 °F 66.9 °F 49% 29.99 in 10.0 mi WSW 10.4 mph - N/A   Clear
5:53 PM 84.0 °F 87.8 °F 69.1 °F 61% 29.99 in 10.0 mi SW 18.4 mph - N/A   Scattered Clouds
6:40 PM 82.4 °F 86.3 °F 69.8 °F 66% 29.98 in 10.0 mi SW 15.0 mph - N/A Thunderstorm Mostly Cloudy
6:53 PM 82.0 °F 85.5 °F 69.1 °F 65% 30.01 in 10.0 mi SSE 17.3 mph 21.9 mph N/A Thunderstorm Mostly Cloudy
7:05 PM 73.4 °F - 64.4 °F 73% 30.00 in 10.0 mi East 23.0 mph 34.5 mph N/A Thunderstorm Overcast
7:11 PM 73.4 °F - 62.6 °F 69% 30.01 in 10.0 mi East 25.3 mph 33.4 mph N/A Thunderstorm Overcast
7:33 PM 71.6 °F - 64.4 °F 78% 30.01 in 10.0 mi NE 11.5 mph - N/A Thunderstorm Scattered Clouds
7:53 PM 71.1 °F - 64.0 °F 78% 30.01 in 10.0 mi NE 8.1 mph - N/A Thunderstorm Mostly Cloudy
8:19 PM 69.8 °F - 62.6 °F 78% 30.00 in 10.0 mi ENE 4.6 mph - N/A   Partly Cloudy
8:53 PM 71.1 °F - 64.0 °F 78% 30.01 in 10.0 mi Calm Calm - N/A   Clear
9:53 PM 70.0 °F - 64.9 °F 84% 30.03 in 10.0 mi NE 10.4 mph - N/A   Overcast
10:53 PM 70.0 °F - 66.9 °F 90% 30.03 in 10.0 mi SSE 6.9 mph - N/A   Mostly Cloudy
11:53 PM 73.0 °F - 69.1 °F 87% 30.03 in 10.0 mi SE 6.9 mph - N/A   Overcast